Regional Weather Roundup
Issued by NWS

Home | Current Version | Previous Version | Graphics & Text | Print | Product List | Glossary On
Versions: 1 2 3 4 5 6 7 8 9 10 11 12 13 14 15 16 17 18 19 20 21 22 23 24 25 26 27
000
ASUS45 KBOU 150706
RWRCO

WEATHER ROUNDUP FOR COLORADO
NATIONAL WEATHER SERVICE DENVER/BOULDER CO
100 AM MDT TUE APR 15 2014

NOTE: "FAIR" INDICATES FEW OR NO CLOUDS BELOW 12000 FEET WITH NO
SIGNIFICANT WEATHER AND/OR OBSTRUCTIONS TO VISIBILITY.

COZ001>005-013-030-031-150800-
...NORTHWEST COLORADO...

CITY           SKY/WX    TMP DP  RH WIND       PRES   REMARKS
CRAIG          CLEAR     26  18  71 CALM      30.23S
HAYDEN         CLEAR     27  18  69 E7        30.24F WCI  19
MEEKER         CLEAR     26  21  81 NE3       30.25S
MOUNT WERNER   CLEAR     23   5  46 SW15      30.21F WCI  10
STEAMBOAT SPGS CLEAR     23  16  74 CALM      30.23F
WALDEN         CLEAR     18   9  68 S8        30.17F WCI   7
$$

COZ006>008-011-150800-
...WEST CENTRAL VALLEYS...

CITY           SKY/WX    TMP DP  RH WIND       PRES   REMARKS
GRAND JUNCTION CLEAR     34  22  61 E10       30.25S WCI  26
MONTROSE       CLEAR     32  20  61 SE9       30.29S WCI  24
EAGLE          PTCLDY    27  19  74 E5        30.29S WCI  21
RIFLE          CLEAR     30  22  72 CALM      30.27F
DELTA          CLEAR     35  26  67 E7        30.28F WCI  29
NUCLA            N/A     32  19  59 SE8       30.29S WCI  25
$$

COZ017>023-064>068-150800-
...SOUTHWEST COLORADO...

CITY           SKY/WX    TMP DP  RH WIND       PRES   REMARKS
DURANGO        CLEAR     25   4  40 NE7       30.21S WCI  17
CORTEZ         CLEAR     26  14  60 E5        30.25F WCI  20
PAGOSA SPRINGS CLEAR     29   8  41 CALM      30.24S
TELLURIDE      PTCLDY    23  16  74 SE7       30.27F WCI  15
WOLF CREEK PAS PTCLDY    19  -6  32 W8        30.28S WCI   9
$$

COZ009-010-012-014-032>034-037-058>063-150800-
...CENTRAL COLORADO...

CITY           SKY/WX    TMP DP  RH WIND       PRES   REMARKS
ASPEN          PTCLDY    22  12  65 S7        30.26F WCI  13
BUENA VISTA    PTCLDY    27   6  40 NW12      30.21R WCI  17
COPPER MTN     CLEAR     16   1  53 W16G25    30.20F WCI   0
BERTHOUD PASS  LGT SNOW   7  -2  66 NW44G51   30.09F WCI -20
COTTONWOOD PAS PTCLDY    27   0  31 NW15G23   30.19S WCI  15
GUNNISON       CLEAR     25  12  58 NW6       30.29S WCI  18
KREMMLING      CLEAR     19  14  79 E6        30.26S WCI  11
LEADVILLE      CLEAR     12  -1  56 E7        30.21S WCI   1
MONARCH PASS   MOCLDY    10   9  92 MISG      30.31R
SALIDA         PTCLDY    33  11  40 NW6G17    30.28R WCI  27
SUNLIGHT       PTCLDY    19  12  73 SW3       30.26F
WILKERSON PASS CLEAR     18   1  49 NW14G26   30.19S WCI   4
$$

COZ069>075-150800-
...SAN LUIS VALLEY/SANGRE DE CRISTO MOUNTAINS...

CITY           SKY/WX    TMP DP  RH WIND       PRES   REMARKS
ALAMOSA        CLEAR     29  12  49 N9        30.22R WCI  20
LA VETA PASS   PTCLDY    23   3  42 SW13G23   30.17F WCI  11
SAGUACHE       CLEAR     28   9  43 N10       30.23F WCI  19
$$

COZ035-036-038>040-150800-
...NORTHERN COLORADO FRONT RANGE...

CITY           SKY/WX    TMP DP  RH WIND       PRES   REMARKS
DENVER INTL AP CLEAR     31  23  72 S14       30.08F WCI  21
DMNS CITY PARK   N/A     33  22  63 S8        30.10S WCI  26
AURORA         CLEAR     32  23  69 S15       30.10F WCI  22
FRONT RANGE AP NOT AVBL
ERIE MUNI ARPT CLEAR     32  23  69 S5        30.08F WCI  27
BOULDER MUN AP CLEAR     32  23  69 SW5       30.07F WCI  27
CENTENNIAL     CLEAR     32  20  61 S14       30.10F WCI  22
BROOMFIELD     CLEAR     32  21  64 S3        30.08F
FORT COLLINS   CLEAR     28  21  74 S3        30.09F
LONGMONT       CLEAR     28  24  85 CALM      30.10F
$$

COZ041-046-047-076>085-087-088-150800-
...PIKES PEAK/PALMER DIVIDE AND SOUTHERN FOOTHILLS...

CITY           SKY/WX    TMP DP  RH WIND       PRES   REMARKS
COLO. SPRINGS  CLEAR     27  21  78 S3        30.18F
A. F. ACADEMY  CLEAR     23  19  87 CALM      30.16F
ELLICOTT       NOT AVBL
FALCON         CLEAR     24  22  93 W8        30.17F WCI  15
FORT CARSON    CLEAR     26  23  85 S7        30.17F WCI  19
LIMON          CLEAR     25  21  85 SE5       30.15F WCI  19
MONUMENT HILL  CLEAR     25  21  86 SW9       30.12F WCI  15
TRINIDAD       CLEAR     26  19  74 NW5       30.19F WCI  20
$$

COZ042>045-048>051-090-091-150800-
...NORTHEAST COLORADO...

CITY           SKY/WX    TMP DP  RH WIND       PRES   REMARKS
GREELEY ARPT   CLEAR     28  19  69 S6        30.10F WCI  22
AKRON          CLEAR     27  14  58 S14       30.11F WCI  16
BURLINGTON     CLEAR     24  17  74 SW9       30.18F WCI  14
WRAY           CLEAR     28  23  81 SW10      30.16F WCI  18
STERLING       CLEAR     30  27  86 SW8       30.12F WCI  23
HOLYOKE        CLEAR     30  21  69 SW12      30.14S WCI  21
FORT MORGAN    CLEAR     27  18  70 S3        30.11F
$$

COZ086-089-092>099-150800-
...SOUTHEAST COLORADO...

CITY           SKY/WX    TMP DP  RH WIND       PRES   REMARKS
PUEBLO         CLEAR     30  26  85 W7        30.21F WCI  23
LA JUNTA       CLEAR     33  15  47 S7        30.22F WCI  27
LAMAR          CLEAR     24  18  77 SW7       30.21F WCI  16
SPRINGFIELD      N/A     21  17  84 SW6       30.23F WCI  13
$$



USA.gov is the U.S. government's official web portal to all federal, state and local government web resources and services.